TimeGMT,TemperatureF,Dew PointF,Humidity,Sea Level PressureIn,VisibilityMPH,Wind Direction,Wind SpeedMPH,Gust SpeedMPH,PrecipitationIn,Events,Conditions,WindDirDegrees,DateUTC
12:00 AM,50.0,50.0,100,30.24,3.7,ESE,1.2,-,N/A,,Overcast,120,2012-11-15 00:00:00
12:30 AM,50.0,50.0,100,30.21,3.1,SE,3.5,-,N/A,,Overcast,140,2012-11-15 00:30:00
1:00 AM,50.0,50.0,100,30.21,2.5,ESE,2.3,-,N/A,,Overcast,120,2012-11-15 01:00:00
1:30 AM,50.0,50.0,100,30.21,2.5,Calm,Calm,-,N/A,,Overcast,0,2012-11-15 01:30:00
2:00 AM,48.2,48.2,100,30.21,2.5,Calm,Calm,-,N/A,,Overcast,0,2012-11-15 02:00:00
2:30 AM,50.0,50.0,100,30.18,2.2,Calm,Calm,-,N/A,,Overcast,0,2012-11-15 02:30:00
3:00 AM,48.2,48.2,100,30.18,0.2,ESE,3.5,-,N/A,Fog,Fog,110,2012-11-15 03:00:00
3:30 AM,50.0,50.0,100,30.18,1.6,ESE,1.2,-,N/A,,Mostly Cloudy,110,2012-11-15 03:30:00
4:00 AM,48.2,48.2,100,30.18,0.6,Calm,Calm,-,N/A,,Mostly Cloudy,0,2012-11-15 04:00:00
4:30 AM,48.2,48.2,100,30.18,0.2,Calm,Calm,-,N/A,Fog,Fog,0,2012-11-15 04:30:00
5:00 AM,48.2,48.2,100,30.18,0.2,SE,2.3,-,N/A,Fog,Fog,130,2012-11-15 05:00:00
5:30 AM,48.2,48.2,100,30.18,0.1,ESE,2.3,-,N/A,Fog,Fog,110,2012-11-15 05:30:00
6:00 AM,48.2,48.2,100,30.18,0.1,ESE,1.2,-,N/A,Fog,Fog,110,2012-11-15 06:00:00
6:30 AM,48.2,48.2,100,30.18,0.1,ESE,2.3,-,N/A,Fog,Fog,120,2012-11-15 06:30:00
7:00 AM,46.4,46.4,100,30.18,0.1,SE,2.3,-,N/A,Fog,Fog,140,2012-11-15 07:00:00
7:30 AM,46.4,46.4,100,30.18,0.1,Calm,Calm,-,N/A,Fog,Fog,0,2012-11-15 07:30:00
8:00 AM,46.4,46.4,100,30.18,0.5,Calm,Calm,-,N/A,Fog,Fog,0,2012-11-15 08:00:00
8:30 AM,46.4,46.4,100,30.18,0.2,Variable,1.2,-,N/A,Fog,Fog,0,2012-11-15 08:30:00
9:00 AM,44.6,44.6,100,30.18,0.5,North,3.5,-,N/A,Fog,Fog,360,2012-11-15 09:00:00
9:30 AM,46.4,46.4,100,30.18,0.4,Variable,2.3,-,N/A,Fog,Fog,0,2012-11-15 09:30:00
10:00 AM,44.6,44.6,100,30.18,0.1,Calm,Calm,-,N/A,Fog,Fog,0,2012-11-15 10:00:00
10:30 AM,46.4,46.4,100,30.18,0.1,East,2.3,-,N/A,Fog,Fog,90,2012-11-15 10:30:00
11:00 AM,46.4,46.4,100,30.15,0.1,ESE,3.5,-,N/A,Fog,Fog,110,2012-11-15 11:00:00
11:30 AM,46.4,46.4,100,30.15,0.1,ESE,1.2,-,N/A,Fog,Fog,110,2012-11-15 11:30:00
12:00 PM,48,48,100,30.18,0,Calm,Calm,,,Fog,Partial Fog,,2012-11-15 12:00:00
12:00 PM,48.2,48.2,100,30.15,0.2,Calm,Calm,-,N/A,Fog,Fog,0,2012-11-15 12:00:00
12:30 PM,48.2,48.2,100,30.15,0.2,ESE,4.6,-,N/A,Fog,Fog,110,2012-11-15 12:30:00
1:00 PM,48.2,48.2,100,30.12,0.1,ESE,4.6,-,N/A,Fog,Fog,110,2012-11-15 13:00:00
1:30 PM,48.2,48.2,100,30.12,0.2,ESE,3.5,-,N/A,Fog,Fog,120,2012-11-15 13:30:00
2:00 PM,48.2,48.2,100,30.12,0.2,SSE,3.5,-,N/A,Fog,Fog,160,2012-11-15 14:00:00
2:30 PM,48.2,48.2,100,30.09,1.1,South,3.5,-,N/A,,Mostly Cloudy,170,2012-11-15 14:30:00
3:00 PM,48.2,48.2,100,30.09,6.2,South,3.5,-,N/A,,Mostly Cloudy,180,2012-11-15 15:00:00
3:30 PM,48.2,48.2,100,30.09,3.7,Calm,Calm,-,N/A,,Mostly Cloudy,0,2012-11-15 15:30:00
4:00 PM,48.2,48.2,100,30.09,3.7,South,2.3,-,N/A,,Mostly Cloudy,190,2012-11-15 16:00:00
4:30 PM,48.2,48.2,100,30.09,3.1,Variable,1.2,-,N/A,,Mostly Cloudy,0,2012-11-15 16:30:00
5:00 PM,48.2,48.2,100,30.09,2.2,Calm,Calm,-,N/A,,Overcast,0,2012-11-15 17:00:00
5:30 PM,48.2,48.2,100,30.09,-9999.0,Calm,Calm,-,N/A,,Overcast,0,2012-11-15 17:30:00
6:00 PM,47,47,100,30.11,2,SSW,2.2,,,,Mist,200,2012-11-15 18:00:00
6:00 PM,48.2,48.2,100,30.09,-9999.0,SSW,1.2,-,N/A,,Overcast,200,2012-11-15 18:00:00
6:30 PM,48.2,48.2,100,30.09,1.7,South,2.3,-,N/A,,Mostly Cloudy,170,2012-11-15 18:30:00
7:00 PM,48.2,48.2,100,30.09,0.4,South,3.5,-,N/A,Fog,Fog,190,2012-11-15 19:00:00
7:30 PM,48.2,48.2,100,30.09,0.2,South,3.5,-,N/A,Fog,Fog,190,2012-11-15 19:30:00
8:00 PM,48.2,48.2,100,30.06,0.3,SSW,4.6,-,N/A,Fog,Fog,200,2012-11-15 20:00:00
8:30 PM,48.2,48.2,100,30.06,0.4,South,3.5,-,N/A,Fog,Fog,190,2012-11-15 20:30:00
9:00 PM,48.2,48.2,100,30.06,0.6,SSW,3.5,-,N/A,Fog,Fog,210,2012-11-15 21:00:00
9:30 PM,48.2,48.2,100,30.06,1.2,SSW,3.5,-,N/A,,Mostly Cloudy,200,2012-11-15 21:30:00
10:00 PM,48.2,48.2,100,30.06,0.5,SSW,3.5,-,N/A,Fog,Fog,210,2012-11-15 22:00:00
10:30 PM,48.2,48.2,100,30.06,0.4,SW,2.3,-,N/A,Fog,Fog,220,2012-11-15 22:30:00
11:00 PM,48.2,48.2,100,30.04,1.2,WSW,2.3,-,N/A,,Mostly Cloudy,250,2012-11-15 23:00:00
11:30 PM,48.2,48.2,100,30.04,1.9,WSW,1.2,-,N/A,,Mostly Cloudy,250,2012-11-15 23:30:00